This demonstration page uses our WeatherBlox Daily Observations layout. Learn more.

Left ArrowRight Arrow

Hourly Observations for October 15, 2015

Temp ( °F °C ) Dew Point ( °F °C ) Humidity (%) Winds ( mph kmh ) Pressure ( in mb ) Visibility ( mi km ) Precip ( " mm )
12:15 am 00:15 Clear 55 13 32 0 41 41 SSW 6 9 30.03 1017 10 16 0.00 0.00
12:35 am 00:35 Clear 55 13 32 0 41 41 SE 6 9 30.03 1017 10 16 0.00 0.00
12:55 am 00:55 Clear 54 12 34 1 47 47 SSW 3 6 30.06 1018 10 16 0.00 0.00
1:15 am 01:15 Clear 50 10 34 1 54 54 Calm 30.06 1018 8 13 0.00 0.00
1:35 am 01:35 Clear 50 10 34 1 54 54 Calm 30.06 1018 3 4 0.00 0.00
1:55 am 01:55 Clear 50 10 34 1 54 54 Calm 30.06 1018 10 16 0.00 0.00
2:15 am 02:15 Clear 55 13 34 1 44 44 SW 6 9 30.03 1017 10 16 0.00 0.00
2:35 am 02:35 Clear 54 12 34 1 47 47 SW 5 7 30.06 1018 10 16 0.00 0.00
2:55 am 02:55 Clear 52 11 34 1 50 50 SW 5 7 30.09 1019 10 16 0.00 0.00
3:15 am 03:15 Clear 48 9 34 1 58 58 NNW 6 9 30.12 1020 10 16 0.00 0.00
3:35 am 03:35 Clear 52 11 36 2 54 54 NNE 6 9 30.09 1019 10 16 0.00 0.00
3:55 am 03:55 Clear 50 10 34 1 54 54 N 7 11 30.09 1019 10 16 0.00 0.00
4:15 am 04:15 Clear 50 10 34 1 54 54 N 3 6 30.09 1019 10 16 0.00 0.00
4:35 am 04:35 Clear 48 9 34 1 58 58 N 3 6 30.15 1021 10 16 0.00 0.00
4:55 am 04:55 Clear 48 9 34 1 58 58 N 5 7 30.12 1020 10 16 0.00 0.00
5:15 am 05:15 Clear 48 9 34 1 58 58 NW 8 13 30.15 1021 10 16 0.00 0.00
5:35 am 05:35 Clear 48 9 34 1 58 58 NNW 10 17 30.15 1021 10 16 0.00 0.00
5:55 am 05:55 Clear 46 8 34 1 62 62 N 9 15 30.15 1021 10 16 0.00 0.00
6:15 am 06:15 Clear 46 8 34 1 62 62 N 9 15 30.15 1021 10 16 0.00 0.00
6:35 am 06:35 Clear 46 8 36 2 66 66 N 5 7 30.15 1021 10 16 0.00 0.00
6:55 am 06:55 Clear 48 9 36 2 62 62 Calm 30.15 1021 10 16 0.00 0.00
7:15 am 07:15 Clear 46 8 36 2 66 66 Calm 30.18 1022 10 16 0.00 0.00
7:35 am 07:35 Clear 48 9 36 2 62 62 Calm 30.18 1022 10 16 0.00 0.00
7:55 am 07:55 Sunny 46 8 34 1 62 62 NW 5 7 30.18 1022 10 16 0.00 0.00
8:15 am 08:15 Sunny 46 8 34 1 62 62 NNW 7 11 30.18 1022 9 14 0.00 0.00
8:35 am 08:35 Sunny 46 8 36 2 66 66 NNW 9 15 30.18 1022 7 11 0.00 0.00
8:55 am 08:55 Sunny 48 9 36 2 62 62 N 8 13 30.21 1023 8 13 0.00 0.00
9:15 am 09:15 Sunny 52 11 37 3 58 58 N 8 13 30.18 1022 10 16 0.00 0.00
9:35 am 09:35 Sunny 55 13 37 3 51 51 N 9 15 30.18 1022 10 16 0.00 0.00
9:55 am 09:55 Sunny 57 14 37 3 48 48 NNE 12 19 30.18 1022 10 16 0.00 0.00
10:15 am 10:15 Sunny 61 16 37 3 42 42 NNE 13 20 30.18 1022 10 16 0.00 0.00
10:35 am 10:35 Sunny 63 17 36 2 37 37 NNE 10 17 30.18 1022 10 16 0.00 0.00
10:55 am 10:55 Sunny 64 18 36 2 34 34 NNE 13 20 30.18 1022 10 16 0.00 0.00
11:15 am 11:15 Sunny 66 19 34 1 30 30 NNE 18 30 30.18 1022 10 16 0.00 0.00
11:35 am 11:35 Sunny 66 19 36 2 32 32 NNE 18 30 30.18 1022 10 16 0.00 0.00
11:55 am 11:55 Sunny 64 18 34 1 32 32 N 20 31 30.24 1024 10 16 0.00 0.00
12:15 pm 12:15 Sunny 64 18 34 1 32 32 NNE 20 31 30.24 1024 10 16 0.00 0.00
12:35 pm 12:35 Sunny 64 18 34 1 32 32 NNE 17 28 30.24 1024 10 16 0.00 0.00
12:55 pm 12:55 Mostly Sunny 66 19 34 1 30 30 N 15 24 30.21 1023 10 16 0.00 0.00
1:15 pm 13:15 Mostly Cloudy 68 20 32 0 26 26 N 20 31 30.21 1023 10 16 0.00 0.00
1:35 pm 13:35 Cloudy 68 20 30 -1 24 24 NNE 20 31 30.21 1023 10 16 0.00 0.00
1:55 pm 13:55 Cloudy 66 19 30 -1 26 26 NNE 18 30 30.21 1023 10 16 0.00 0.00
2:15 pm 14:15 Cloudy 64 18 30 -1 28 28 NNE 17 28 30.24 1024 10 16 0.00 0.00
2:35 pm 14:35 Cloudy 66 19 30 -1 26 26 NNE 17 28 30.21 1023 10 16 0.00 0.00
2:55 pm 14:55 Cloudy 64 18 30 -1 28 28 N 18 30 30.24 1024 10 16 0.00 0.00
3:15 pm 15:15 Cloudy 66 19 30 -1 26 26 N 16 26 30.21 1023 10 16 0.00 0.00
3:35 pm 15:35 Mostly Sunny 64 18 30 -1 28 28 NNE 14 22 30.24 1024 10 16 0.00 0.00
3:55 pm 15:55 Sunny 66 19 30 -1 26 26 NNE 18 30 30.21 1023 10 16 0.00 0.00
4:15 pm 16:15 Sunny 66 19 27 -3 22 22 NNE 20 31 30.21 1023 10 16 0.00 0.00
4:35 pm 16:35 Sunny 66 19 27 -3 22 22 NNE 20 31 30.21 1023 10 16 0.00 0.00
4:55 pm 16:55 Sunny 66 19 27 -3 22 22 NNE 20 31 30.21 1023 10 16 0.00 0.00
5:15 pm 17:15 Sunny 64 18 27 -3 24 24 NNE 16 26 30.24 1024 10 16 0.00 0.00
5:35 pm 17:35 Sunny 64 18 27 -3 24 24 NNE 15 24 30.24 1024 10 16 0.00 0.00
5:55 pm 17:55 Sunny 63 17 27 -3 25 25 NNE 15 24 30.27 1025 10 16 0.00 0.00
6:15 pm 18:15 Sunny 61 16 27 -3 27 27 NNE 15 24 30.27 1025 10 16 0.00 0.00
6:35 pm 18:35 Sunny 57 14 27 -3 31 31 NNE 10 17 30.30 1026 10 16 0.00 0.00
6:55 pm 18:55 Sunny 55 13 27 -3 33 33 N 8 13 30.30 1026 10 16 0.00 0.00
7:15 pm 19:15 Clear 52 11 27 -3 38 38 N 8 13 30.33 1027 10 16 0.00 0.00
7:35 pm 19:35 Clear 50 10 27 -3 40 40 N 9 15 30.36 1028 10 16 0.00 0.00
7:55 pm 19:55 Clear 54 12 27 -3 35 35 N 7 11 30.33 1027 10 16 0.00 0.00
8:15 pm 20:15 Clear 52 11 27 -3 38 38 N 9 15 30.36 1028 10 16 0.00 0.00
8:35 pm 20:35 Clear 54 12 27 -3 35 35 N 8 13 30.36 1028 10 16 0.00 0.00
8:55 pm 20:55 Clear 52 11 27 -3 38 38 N 6 9 30.39 1029 10 16 0.00 0.00
9:15 pm 21:15 Clear 48 9 27 -3 43 43 N 6 9 30.39 1029 10 16 0.00 0.00
9:35 pm 21:35 Clear 48 9 27 -3 43 43 N 6 9 30.42 1030 10 16 0.00 0.00
9:55 pm 21:55 Clear 48 9 27 -3 43 43 N 7 11 30.42 1030 10 16 0.00 0.00
10:15 pm 22:15 Clear 48 9 28 -2 46 46 N 10 17 30.42 1030 10 16 0.00 0.00
10:35 pm 22:35 Clear 48 9 28 -2 46 46 N 6 9 30.42 1030 10 16 0.00 0.00
10:55 pm 22:55 Clear 46 8 28 -2 50 50 NNW 6 9 30.48 1032 10 16 0.00 0.00
11:15 pm 23:15 Clear 45 7 28 -2 53 53 NNW 7 11 30.48 1032 10 16 0.00 0.00
11:35 pm 23:35 Clear 43 6 28 -2 57 57 NW 6 9 30.48 1032 10 16 0.00 0.00
11:55 pm 23:55 Clear 39 4 27 -3 61 61 NW 6 9 30.50 1033 10 16 0.00 0.00

Powered by AerisWeather